OBJECT B, 62726

Orbit data source: Space-Track

You're viewing an Uncataloged Satellite

Recently launched and/or uncataloged satellites may have evolving metadata. Metadata may include but not limited to: Owner, Maufacturer, Bus, Motor, and Mission.

OBJECT B, 62726 is a Chinese satellite in SSO that was launched on Fri, 17 Jan 2025 UTC via a CHANG ZHENG 2D launch vehicle from the Jiuquan Satellite Launch Center, China (JSC). Unknown objects in Earth's orbit typically refer to objects detected orbiting the Earth but have not yet been identified or cataloged. These objects could be anything from previously untracked satellites, spent rocket stages, debris from satellite collisions, or even natural meteoroids temporarily captured by Earth's gravity.

Loading next visibility...
Identifier
62726, 2025-012B
Orbit
SSO
Country
Flag of CNCN / PRC
Related business
None
Manufacturer
Yinhe
Mission
Operational Civil Imaging
Bus & Motor
TIANLU, Unknown motor
Mass
~100 kg wet, ~100 kg dry
Launch date (UTC)
2025-01-17 (8 months ago)
Launch vehicle
CHANG ZHENG 2D
Launch site
Jiuquan Satellite Launch Center, China (JSC)
Object type
Unknown
Shape & HBR
Box + 2 Pan, 1.0 m
Radar Cross Section
1.475 m², Large (>1 m²)

Expand to show TLE details & history
Last TLE update: 11 hours ago

TLE from 11 hours ago
0 OBJECT B
1 62726U 25012B   25260.78730067  .00004050  00000-0  20457-3 0  9996
2 62726  97.4554 332.8570 0010784 141.5134 218.6871 15.17600955 36883
Epoch: 2025-09-17T18:53Z
TLE epoch observation values (Epoch: 2025-09-17T18:53:42.777Z)
Latitude
-0.00002°
Longitude
52.47053°
Altitude
521.984 km
Speed
7.599 km/s
True Right ascension
22h 11m 25s
True Declination
0° 00' 00"
Sunlit
Object was in full shadow at epoch
Visualization orbit readout
Latitude
Unknown
Longitude
Unknown
Altitude
Unknown
Speed
Unknown
Apparent Right ascension
Unknown
Apparent Declination
Unknown
Sunlit
N/A
Visualization observer readout
Local Sidereal Time
22:18:01
Azimuth
Unknown
Elevation
Unknown
Doppler factor
Unknown
Orbital elements
Apogee altitude
517.493 km
Perigee altitude
502.636 km
Semi-major axis
6,888.202 km
Eccentricity
0.00108
Inclination
97.4554°
RAAN
332.857°
Arg. of periapsis
141.5134°
True anomaly
218.60994°
Mean anomaly
218.6871°
Eccentric anomaly
218.64851°
Mean motion
3.79651 °/min
Orbital period
94.82 mins
BSTAR
0.00020457
Loading maneuver chart data...
Computing Atmospheric mass density...
Loading historical data...
Loading historical data...
Loading historical data...
Loading historical data...
Loading historical data...
Loading historical data...
Loading historical data...
Other satellites on launch #12 in the year 2025 (2025-01-17 UTC)

Documentation

Showing up to 5 results
|